Regional Weather Roundup
Issued by NWS

Home | Current Version | Previous Version | Graphics & Text | Print | Product List | Glossary On
Versions: 1 2 3 4 5 6 7 8 9 10 11 12 13 14 15 16 17 18 19 20 21 22 23 24 25 26 27 28 29 30 31 32 33 34 35 36 37 38 39 40 41 42 43 44 45 46 47 48 49 50
000
ASUS43 KMPX 281310
RWRMN
WEATHER ROUNDUP FOR MINNESOTA
NATIONAL WEATHER SERVICE TWIN CITIES/CHANHASSEN MN
800 AM CDT THU APR 28 2016


NOTE: "FAIR" INDICATES FEW OR NO CLOUDS BELOW 12,000 FEET WITH NO
SIGNIFICANT WEATHER AND/OR OBSTRUCTIONS TO VISIBILITY. N/A MEANS
CURRENT SKY AND/OR WEATHER CONDITIONS ARE NOT AVAILABLE.

MNZ060>063-068>070-281400-
   Twin Cities Metro

CITY           SKY/WX    TMP DP  RH WIND       PRES   REMARKS
TWIN CITIES    LGT RAIN  38  31  76 NE16      29.94R
ST PAUL        LGT RAIN  38  32  79 NE9       29.96R
CRYSTAL        LGT RAIN  39  32  76 NE9       29.93R
BLAINE         LGT RAIN  39  34  81 MISG      29.95R
EDEN PRAIRIE   CLOUDY    39  32  76 NE12      29.91R HAZE
SOUTH ST PAUL  RAIN      38  33  82 NE8       29.94R
LAKE ELMO      RAIN      37  32  81 NE10      29.96R
$$
MNZ001>005-007-008-013>017-022>024-027-028-281400-
   Northwest Minnesota

CITY           SKY/WX    TMP DP  RH WIND       PRES   REMARKS
BEMIDJI        CLOUDY    38  18  43 NE7       30.07R
HALLOCK        CLOUDY    41  18  38 E9        30.15R
ROSEAU         CLOUDY    37  28  70 NE8       30.16R
WARROAD        CLOUDY    37  27  65 NE9       30.17R
THIEF RVR FALL PTSUNNY   37  19  48 NE10      30.12R
CROOKSTON      CLOUDY    41  21  45 E8        30.11R
FOSSTON        CLOUDY    39  19  45 NE8       30.08R
DETROIT LAKES  CLOUDY    39  28  65 E8        30.04R
MOORHEAD       CLOUDY    43  25  49 NE6       30.05R
PARK RAPIDS    CLOUDY    42  12  29 E12G17    30.03R
MAHNOMEN       CLOUDY    42  16  36 E9        30.05R
$$
MNZ006-009>011-018-025>026-281400-
   North Central Minnesota

CITY           SKY/WX    TMP DP  RH WIND       PRES   REMARKS
BAUDETTE       CLOUDY    37  17  44 NE8       30.15R
FLAG ISLAND    CLOUDY    37  18  44 NE9       30.18S
INTL FALLS     CLOUDY    38  19  46 NE9       30.15R
WASKISH        PTSUNNY   37  23  56 NE8       30.12R
BIG FORK       CLOUDY    37  19  48 NE5       30.10R
LONGVILLE      CLOUDY    39  12  33 NE5       30.04S
GRAND RAPIDS   CLOUDY    39  12  33 E8        30.07S
CRANE LAKE     CLOUDY    34  21  60 CALM      30.16S
ORR            CLOUDY    36  16  44 CALM      30.09S
COOK           CLOUDY    37  21  52 NE3       30.10S
WALKER         CLOUDY    39  17  40 NE9       30.05S
$$
MNZ012-019>021-037-281400-
   Northeast Minnesota

CITY           SKY/WX    TMP DP  RH WIND       PRES   REMARKS
DULUTH         CLOUDY    37  24  59 E15       30.04R
ELY            CLOUDY    36  19  51 NE6       30.11R
HIBBING        CLOUDY    37  17  44 NE8       30.07R
EVELETH        CLOUDY    36  18  48 NE7       30.08S
DULUTH HARBOR  CLOUDY    37  34  87 NE20G26   30.07S
TWO HARBORS    CLOUDY    41  28  60 NE14G20   30.06S
SILVER BAY     CLOUDY    39  28  65 NE12      30.08S
GRAND MARAIS     N/A     40  23  50 NE14G21   30.16R
G MARAIS ARPRT CLOUDY    34  19  55 NE7       30.14R WCI  28
$$
MNZ029>031-032-039>041-046>048-054>057-064-281400-
   West Central Minnesota

CITY           SKY/WX    TMP DP  RH WIND       PRES   REMARKS
FERGUS FALLS   CLOUDY    41  23  48 NE6       30.00R
WHEATON        CLOUDY    41  32  70 NE9       30.02R
MORRIS         CLOUDY    39  28  65 NE12      29.97R
ALEXANDRIA     CLOUDY    38  23  55 NE12      29.98R
ELBOW LAKE     CLOUDY    39  25  57 NE8       29.99S
WADENA         CLOUDY    39  18  41 NE9       30.00S
GLENWOOD       CLOUDY    37  28  70 NE13      29.97R
APPLETON       LGT RAIN  37  32  81 NE12      29.96R
BENSON         MIX PCPN  37  30  75 E8        29.96S
ORTONVILLE     CLOUDY    39  32  75 NE12G18   29.97R
MADISON        LGT RAIN  37  36  93 NE12      29.96R
WILLMAR        LGT RAIN  37  32  81 NE17G25   29.95R
$$
MNZ033>034-036-042>043-049>051-058-059-281400-
   Central Minnesota

CITY           SKY/WX    TMP DP  RH WIND       PRES   REMARKS
ST CLOUD       CLOUDY    38  24  57 NE8       29.96R
SAUK CENTRE    CLOUDY    38  24  57 NE14G20   29.97R
PAYNESVILLE    CLOUDY    37  27  66 NE14      29.95S
AITKIN         CLOUDY    43  10  26 NE10      30.01S
PINE RIVER     CLOUDY    39  18  41 NE8       30.06S
BRAINERD       CLOUDY    41  16  36 NE9       30.01R
STAPLES        CLOUDY    41  12  30 NE9G18    30.00S
LONG PRAIRIE   CLOUDY    36  23  60 NE7       29.98S
LITTLE FALLS   CLOUDY    37  23  56 E8        29.99R
LITCHFIELD     CLOUDY    37  34  87 NE10G18   29.94R
BUFFALO        LGT RAIN  37  31  78 NE14G20   29.95S
MAPLE LAKE     CLOUDY    37  32  82 NE12      29.96R
HUTCHINSON     LGT RAIN  37  34  89 NE16G22   29.93R
$$
MNZ037-044-045-052-053-281400-
   East Central Minnesota

CITY           SKY/WX    TMP DP  RH WIND       PRES   REMARKS
PRINCETON      LGT RAIN  39  23  52 NE6G16    29.98R
MORA           CLOUDY    37  23  56 NE5       30.01S
CAMBRIDGE      LGT RAIN  39  27  60 NE6       29.97R
RUSH CITY      CLOUDY    38  24  56 NE6       29.99R
MOOSE LAKE     CLOUDY    39  21  48 NE9       30.00S
HINCKLEY       CLOUDY    41  18  38 NE6       30.00R
CLOQUET        CLOUDY    37  19  48 E9G16     30.03R
MCGREGOR       CLOUDY    41  19  42 NE7       30.03S
$$
MNZ071>073-080-081-089-090-097-098-281400-
   Southwest Minnesota

CITY           SKY/WX    TMP DP  RH WIND       PRES   REMARKS
MONTEVIDEO     LGT RAIN  36  36 100 E9        29.96R
GRANITE FALLS  RAIN      38  36  92 NE10      29.94R
CANBY          LGT RAIN  39  37  94 NE9       29.95R
MARSHALL       LGT SNOW  36  34  92 NE10      29.93R FOG
REDWOOD FALLS  LGT RAIN  38  35  89 NE8       29.91R
OLIVIA         LGT RAIN  36  34  93 NE15G21   29.91R
PIPESTONE      CLOUDY    37  36  93 E12       29.87R
WINDOM         CLOUDY    37  36  93 NE14      29.87R
WORTHINGTON    CLOUDY    37  35  92 NE15      29.86S
JACKSON        CLOUDY    37  36  93 NE14      29.85R
TRACY          DRIZZLE   38  37  97 NE10      29.90R
SLAYTON        CLOUDY    37  37 100 NE14      29.88S
$$
MNZ065>067-074>077-082>085-091>093-281400-
   South Central Minnesota

CITY           SKY/WX    TMP DP  RH WIND       PRES   REMARKS
MANKATO        CLOUDY    39  34  81 NE14      29.87R
NEW ULM        CLOUDY    39  37  93 NE12      29.88S
ST JAMES       CLOUDY    34  30  86 NE9       29.88R WCI  26
FAIRMONT       CLOUDY    39  28  65 NE14      29.84R
GLENCOE        LGT RAIN  37  36  94 NE9       29.91S
FARIBAULT      CLOUDY    37  37 100 NE7       29.88S
OWATONNA       CLOUDY    39  32  75 NE13      29.87S
ALBERT LEA     CLOUDY    39  36  87 E12       29.83R
$$
MNZ078>079-086>088-094>096-281400-
   Southeast Minnesota

CITY           SKY/WX    TMP DP  RH WIND       PRES   REMARKS
ROCHESTER      LGT RAIN  38  34  85 E14       29.88R
RED WING       RAIN      37  32  81 E6        29.92R
STANTON        DRIZZLE   40  32  74 NE13G18   29.90R
DODGE CENTER   CLOUDY    37  34  87 E16       29.86S
WINONA         LGT RAIN  37  32  81 E5        29.91R
AUSTIN         CLOUDY    39  34  81 E12G21    29.83S
PRESTON        CLOUDY    37  32  82 NE8       29.87R
$$
ABBREVIATIONS USED IN REMARKS
   TC - TEMPERATURES IN CELSIUS
  WCI - WIND CHILL INDEX
   HX - HEAT INDEX
  VSB - VISIBILITY
$$




USA.gov is the U.S. government's official web portal to all federal, state and local government web resources and services.